Time,TemperatureF,DewpointF,PressureIn,WindDirection,WindDirectionDegrees,WindSpeedMPH,WindSpeedGustMPH,Humidity,HourlyPrecipIn,Conditions,Clouds,dailyrainin,SolarRadiationWatts/m^2,SoftwareType,DateUTC
2013-01-22 00:03:00,18.2,6.0,30.29,NE,36,0.0,1.0,58,0.00,,,0.00,0,Custom,2013-01-22 06:03:00,
2013-01-22 00:08:00,18.1,6.0,30.28,NE,36,0.0,1.0,57,0.00,,,0.00,0,Custom,2013-01-22 06:08:00,
2013-01-22 00:13:00,18.1,5.0,30.28,NE,36,0.0,1.0,57,0.00,,,0.00,0,Custom,2013-01-22 06:13:00,
2013-01-22 00:18:00,18.0,5.0,30.28,NE,36,0.0,1.0,57,0.00,,,0.00,0,Custom,2013-01-22 06:18:00,
2013-01-22 00:23:00,18.0,5.0,30.28,NE,36,0.0,1.0,57,0.00,,,0.00,0,Custom,2013-01-22 06:23:00,
2013-01-22 00:28:00,18.0,6.0,30.29,NE,36,0.0,1.0,58,0.00,,,0.00,0,Custom,2013-01-22 06:28:00,
2013-01-22 00:33:00,18.1,6.0,30.29,NE,36,0.0,1.0,58,0.00,,,0.00,0,Custom,2013-01-22 06:33:00,
2013-01-22 00:38:00,18.1,6.0,30.29,NE,36,0.0,2.0,58,0.00,,,0.00,0,Custom,2013-01-22 06:38:00,
2013-01-22 00:43:00,18.1,6.0,30.29,NE,36,0.0,1.0,59,0.00,,,0.00,0,Custom,2013-01-22 06:43:00,
2013-01-22 00:48:00,18.2,6.0,30.29,NE,36,2.0,2.0,58,0.00,,,0.00,0,Custom,2013-01-22 06:48:00,
2013-01-22 00:53:00,18.1,6.0,30.28,NE,36,0.0,1.0,58,0.00,,,0.00,0,Custom,2013-01-22 06:53:00,
2013-01-22 00:58:00,17.9,6.0,30.28,NNE,25,0.0,0.0,59,0.00,,,0.00,0,Custom,2013-01-22 06:58:00,
2013-01-22 01:03:00,17.9,6.0,30.29,NNE,24,0.0,1.0,59,0.00,,,0.00,0,Custom,2013-01-22 07:03:00,
2013-01-22 01:08:00,17.9,6.0,30.28,NNE,25,2.0,2.0,59,0.00,,,0.00,0,Custom,2013-01-22 07:08:00,
2013-01-22 01:13:00,17.8,6.0,30.28,NE,44,0.0,3.0,59,0.00,,,0.00,0,Custom,2013-01-22 07:13:00,
2013-01-22 01:18:00,17.7,6.0,30.27,NE,52,1.0,0.0,59,0.00,,,0.00,0,Custom,2013-01-22 07:18:00,
2013-01-22 01:23:00,17.5,6.0,30.28,NE,52,0.0,2.0,59,0.00,,,0.00,0,Custom,2013-01-22 07:23:00,
2013-01-22 01:28:00,17.5,6.0,30.28,NE,52,0.0,1.0,59,0.00,,,0.00,0,Custom,2013-01-22 07:28:00,
2013-01-22 01:33:00,17.5,6.0,30.28,NE,52,0.0,3.0,59,0.00,,,0.00,0,Custom,2013-01-22 07:33:00,
2013-01-22 01:38:00,17.4,6.0,30.29,NE,53,1.0,1.0,59,0.00,,,0.00,0,Custom,2013-01-22 07:38:00,
2013-01-22 01:43:00,17.3,6.0,30.29,NE,53,0.0,1.0,60,0.00,,,0.00,0,Custom,2013-01-22 07:43:00,
2013-01-22 01:48:00,17.3,6.0,30.29,NE,53,0.0,2.0,60,0.00,,,0.00,0,Custom,2013-01-22 07:48:00,
2013-01-22 01:53:00,17.3,6.0,30.29,NE,55,0.0,1.0,60,0.00,,,0.00,0,Custom,2013-01-22 07:53:00,
2013-01-22 01:58:00,17.0,6.0,30.28,NE,55,0.0,0.0,61,0.00,,,0.00,0,Custom,2013-01-22 07:58:00,
2013-01-22 02:03:00,17.0,6.0,30.28,NE,55,1.0,1.0,60,0.00,,,0.00,0,Custom,2013-01-22 08:03:00,
2013-01-22 02:08:00,17.0,6.0,30.29,NE,55,0.0,3.0,61,0.00,,,0.00,0,Custom,2013-01-22 08:08:00,
2013-01-22 02:13:00,17.0,6.0,30.29,NE,55,0.0,1.0,61,0.00,,,0.00,0,Custom,2013-01-22 08:13:00,
2013-01-22 02:18:00,17.1,6.0,30.29,NE,55,1.0,1.0,61,0.00,,,0.00,0,Custom,2013-01-22 08:18:00,
2013-01-22 02:23:00,17.1,6.0,30.29,NE,55,0.0,1.0,60,0.00,,,0.00,0,Custom,2013-01-22 08:23:00,
2013-01-22 02:28:00,17.1,6.0,30.29,NE,55,0.0,2.0,61,0.00,,,0.00,0,Custom,2013-01-22 08:28:00,
2013-01-22 02:33:00,17.1,6.0,30.29,NE,55,0.0,1.0,60,0.00,,,0.00,0,Custom,2013-01-22 08:33:00,
2013-01-22 02:38:00,17.1,6.0,30.29,NE,55,0.0,1.0,60,0.00,,,0.00,0,Custom,2013-01-22 08:38:00,
2013-01-22 02:43:00,17.1,6.0,30.30,NE,55,0.0,2.0,61,0.00,,,0.00,0,Custom,2013-01-22 08:43:00,
2013-01-22 02:48:00,17.0,6.0,30.29,NE,55,0.0,3.0,61,0.00,,,0.00,0,Custom,2013-01-22 08:48:00,
2013-01-22 02:53:00,17.0,6.0,30.29,NE,55,0.0,1.0,61,0.00,,,0.00,0,Custom,2013-01-22 08:53:00,
2013-01-22 02:58:00,17.0,6.0,30.29,NE,55,0.0,2.0,61,0.00,,,0.00,0,Custom,2013-01-22 08:58:00,
2013-01-22 03:03:00,16.9,6.0,30.29,NE,55,0.0,2.0,61,0.00,,,0.00,0,Custom,2013-01-22 09:03:00,
2013-01-22 03:08:00,16.9,6.0,30.29,NE,56,0.0,1.0,61,0.00,,,0.00,0,Custom,2013-01-22 09:08:00,
2013-01-22 03:13:00,16.9,6.0,30.29,NE,55,0.0,1.0,61,0.00,,,0.00,0,Custom,2013-01-22 09:13:00,
2013-01-22 03:18:00,16.9,6.0,30.29,NE,55,0.0,2.0,62,0.00,,,0.00,0,Custom,2013-01-22 09:18:00,
2013-01-22 03:23:00,16.8,6.0,30.29,NE,55,0.0,1.0,61,0.00,,,0.00,0,Custom,2013-01-22 09:23:00,
2013-01-22 03:28:00,16.8,6.0,30.29,NE,55,0.0,0.0,62,0.00,,,0.00,0,Custom,2013-01-22 09:28:00,
2013-01-22 03:33:00,16.8,6.0,30.30,NE,51,0.0,2.0,62,0.00,,,0.00,0,Custom,2013-01-22 09:33:00,
2013-01-22 03:39:00,16.7,6.0,30.29,NE,51,0.0,3.0,62,0.00,,,0.00,0,Custom,2013-01-22 09:39:00,
2013-01-22 03:44:00,16.6,6.0,30.29,ENE,63,0.0,4.0,62,0.00,,,0.00,0,Custom,2013-01-22 09:44:00,
2013-01-22 03:49:00,16.5,6.0,30.29,ENE,63,0.0,2.0,63,0.00,,,0.00,0,Custom,2013-01-22 09:49:00,
2013-01-22 03:54:00,16.4,6.0,30.28,ENE,77,0.0,2.0,62,0.00,,,0.00,0,Custom,2013-01-22 09:54:00,
2013-01-22 03:59:00,16.3,6.0,30.29,ENE,77,0.0,1.0,63,0.00,,,0.00,0,Custom,2013-01-22 09:59:00,
2013-01-22 04:04:00,16.3,6.0,30.28,ENE,77,0.0,0.0,63,0.00,,,0.00,0,Custom,2013-01-22 10:04:00,
2013-01-22 04:09:00,16.3,6.0,30.28,East,84,0.0,3.0,63,0.00,,,0.00,0,Custom,2013-01-22 10:09:00,
2013-01-22 04:14:00,16.2,6.0,30.28,East,81,0.0,3.0,62,0.00,,,0.00,0,Custom,2013-01-22 10:14:00,
2013-01-22 04:19:00,16.1,6.0,30.28,East,81,0.0,1.0,63,0.00,,,0.00,0,Custom,2013-01-22 10:19:00,
2013-01-22 04:24:00,16.1,6.0,30.27,East,81,0.0,1.0,63,0.00,,,0.00,0,Custom,2013-01-22 10:24:00,
2013-01-22 04:29:00,16.1,6.0,30.28,East,81,0.0,1.0,63,0.00,,,0.00,0,Custom,2013-01-22 10:29:00,
2013-01-22 04:34:00,16.1,6.0,30.28,East,81,0.0,2.0,64,0.00,,,0.00,0,Custom,2013-01-22 10:34:00,
2013-01-22 04:39:00,16.1,6.0,30.28,East,81,0.0,3.0,63,0.00,,,0.00,0,Custom,2013-01-22 10:39:00,
2013-01-22 04:44:00,16.1,6.0,30.28,East,79,0.0,4.0,63,0.00,,,0.00,0,Custom,2013-01-22 10:44:00,
2013-01-22 04:49:00,16.1,6.0,30.28,East,79,0.0,5.0,64,0.00,,,0.00,0,Custom,2013-01-22 10:49:00,
2013-01-22 04:54:00,16.0,6.0,30.28,East,84,0.0,2.0,63,0.00,,,0.00,0,Custom,2013-01-22 10:54:00,
2013-01-22 04:59:00,15.9,5.0,30.29,East,79,0.0,1.0,62,0.00,,,0.00,0,Custom,2013-01-22 10:59:00,
2013-01-22 05:04:00,15.9,6.0,30.29,ENE,78,0.0,2.0,64,0.00,,,0.00,0,Custom,2013-01-22 11:04:00,
2013-01-22 05:09:00,15.9,6.0,30.28,East,92,0.0,1.0,63,0.00,,,0.00,0,Custom,2013-01-22 11:09:00,
2013-01-22 05:14:00,15.8,5.0,30.28,ENE,76,0.0,3.0,63,0.00,,,0.00,0,Custom,2013-01-22 11:14:00,
2013-01-22 05:19:00,15.8,6.0,30.28,ENE,75,0.0,1.0,63,0.00,,,0.00,0,Custom,2013-01-22 11:19:00,
2013-01-22 05:24:00,15.8,6.0,30.28,ENE,72,0.0,2.0,63,0.00,,,0.00,0,Custom,2013-01-22 11:24:00,
2013-01-22 05:29:00,15.8,6.0,30.27,ENE,70,0.0,1.0,64,0.00,,,0.00,0,Custom,2013-01-22 11:29:00,
2013-01-22 05:34:00,15.8,6.0,30.28,ENE,71,0.0,3.0,64,0.00,,,0.00,0,Custom,2013-01-22 11:34:00,
2013-01-22 05:39:00,15.8,6.0,30.28,ENE,71,0.0,2.0,64,0.00,,,0.00,0,Custom,2013-01-22 11:39:00,
2013-01-22 05:44:00,15.7,6.0,30.28,ENE,71,0.0,1.0,64,0.00,,,0.00,0,Custom,2013-01-22 11:44:00,
2013-01-22 05:49:00,15.2,5.0,30.28,ENE,71,0.0,1.0,63,0.00,,,0.00,0,Custom,2013-01-22 11:49:00,
2013-01-22 05:54:00,15.0,5.0,30.28,ENE,71,0.0,1.0,64,0.00,,,0.00,0,Custom,2013-01-22 11:54:00,
2013-01-22 05:59:00,14.7,5.0,30.28,ENE,76,0.0,2.0,64,0.00,,,0.00,0,Custom,2013-01-22 11:59:00,
2013-01-22 06:04:00,14.4,5.0,30.29,ENE,76,1.0,0.0,64,0.00,,,0.00,0,Custom,2013-01-22 12:04:00,
2013-01-22 06:09:00,14.3,5.0,30.29,ENE,76,0.0,1.0,65,0.00,,,0.00,0,Custom,2013-01-22 12:09:00,
2013-01-22 06:14:00,14.1,5.0,30.29,ENE,76,0.0,0.0,66,0.00,,,0.00,0,Custom,2013-01-22 12:14:00,
2013-01-22 06:19:00,14.1,5.0,30.29,ENE,76,0.0,1.0,66,0.00,,,0.00,0,Custom,2013-01-22 12:19:00,
2013-01-22 06:24:00,13.9,5.0,30.29,ENE,76,0.0,0.0,66,0.00,,,0.00,0,Custom,2013-01-22 12:24:00,
2013-01-22 06:29:00,14.1,5.0,30.29,ENE,75,0.0,2.0,67,0.00,,,0.00,0,Custom,2013-01-22 12:29:00,
2013-01-22 06:34:00,14.1,5.0,30.29,ENE,75,0.0,1.0,67,0.00,,,0.00,0,Custom,2013-01-22 12:34:00,
2013-01-22 06:39:00,14.1,5.0,30.29,ENE,74,0.0,3.0,67,0.00,,,0.00,0,Custom,2013-01-22 12:39:00,
2013-01-22 06:44:00,13.9,5.0,30.29,ENE,74,0.0,1.0,67,0.00,,,0.00,0,Custom,2013-01-22 12:44:00,
2013-01-22 06:49:00,13.8,5.0,30.29,ENE,76,0.0,3.0,67,0.00,,,0.00,0,Custom,2013-01-22 12:49:00,
2013-01-22 06:54:00,13.6,5.0,30.29,ENE,76,0.0,1.0,67,0.00,,,0.00,0,Custom,2013-01-22 12:54:00,
2013-01-22 06:59:00,13.2,4.0,30.29,ENE,76,0.0,0.0,67,0.00,,,0.00,0,Custom,2013-01-22 12:59:00,
2013-01-22 07:05:00,13.2,4.0,30.29,ENE,78,0.0,3.0,68,0.00,,,0.00,0,Custom,2013-01-22 13:05:00,
2013-01-22 07:10:00,13.3,5.0,30.29,East,80,0.0,2.0,68,0.00,,,0.00,0,Custom,2013-01-22 13:10:00,
2013-01-22 07:15:00,13.4,5.0,30.29,East,80,0.0,2.0,68,0.00,,,0.00,0,Custom,2013-01-22 13:15:00,
2013-01-22 07:20:00,13.3,5.0,30.29,East,80,0.0,2.0,68,0.00,,,0.00,0,Custom,2013-01-22 13:20:00,
2013-01-22 07:25:00,13.4,5.0,30.29,East,81,0.0,2.0,69,0.00,,,0.00,0,Custom,2013-01-22 13:25:00,
2013-01-22 07:30:00,13.3,5.0,30.29,ENE,61,0.0,2.0,69,0.00,,,0.00,0,Custom,2013-01-22 13:30:00,
2013-01-22 07:35:00,13.3,5.0,30.29,ENE,61,0.0,1.0,69,0.00,,,0.00,0,Custom,2013-01-22 13:35:00,
2013-01-22 07:41:00,13.3,5.0,30.29,ENE,62,0.0,3.0,69,0.00,,,0.00,0,Custom,2013-01-22 13:41:00,
2013-01-22 07:46:00,13.3,5.0,30.29,ENE,62,5.0,5.0,70,0.00,,,0.00,10.53,Custom,2013-01-22 13:46:00,
2013-01-22 07:51:00,13.4,5.0,30.29,NE,47,0.0,4.0,70,0.00,,,0.00,14.43,Custom,2013-01-22 13:51:00,
2013-01-22 07:56:00,13.5,5.0,30.29,ENE,71,0.0,5.0,69,0.00,,,0.00,19.11,Custom,2013-01-22 13:56:00,
2013-01-22 08:01:00,13.6,6.0,30.30,ENE,67,0.0,3.0,70,0.00,,,0.00,19.11,Custom,2013-01-22 14:01:00,
2013-01-22 08:06:00,13.7,6.0,30.30,East,84,4.0,4.0,69,0.00,,,0.00,25.74,Custom,2013-01-22 14:06:00,
2013-01-22 08:12:00,14.3,6.0,30.29,ENE,73,0.0,4.0,69,0.00,,,0.00,33.15,Custom,2013-01-22 14:12:00,
2013-01-22 08:17:00,15.0,6.0,30.29,ENE,74,5.0,5.0,68,0.00,,,0.00,37.05,Custom,2013-01-22 14:17:00,
2013-01-22 08:22:00,15.8,6.0,30.29,NE,36,0.0,4.0,65,0.00,,,0.00,55.77,Custom,2013-01-22 14:22:00,
2013-01-22 08:27:00,16.4,6.0,30.29,ENE,64,1.0,3.0,64,0.00,,,0.00,43.29,Custom,2013-01-22 14:27:00,
2013-01-22 08:32:00,15.9,6.0,30.29,East,90,4.0,5.0,63,0.00,,,0.00,76.83,Custom,2013-01-22 14:32:00,
2013-01-22 08:37:00,17.4,6.0,30.29,East,81,0.0,6.0,63,0.00,,,0.00,118.56,Custom,2013-01-22 14:37:00,
2013-01-22 08:42:00,17.4,6.0,30.29,ENE,72,0.0,6.0,60,0.00,,,0.00,78,Custom,2013-01-22 14:42:00,
2013-01-22 08:47:00,16.6,6.0,30.29,ENE,69,0.0,5.0,63,0.00,,,0.00,75.66,Custom,2013-01-22 14:47:00,
2013-01-22 08:52:00,16.2,6.0,30.29,East,95,2.0,7.0,64,0.00,,,0.00,84.24,Custom,2013-01-22 14:52:00,
2013-01-22 08:58:00,16.2,6.0,30.29,East,79,3.0,8.0,65,0.00,,,0.00,90.48,Custom,2013-01-22 14:58:00,
2013-01-22 09:03:00,16.5,6.0,30.29,ESE,105,3.0,6.0,64,0.00,,,0.00,89.31,Custom,2013-01-22 15:03:00,
2013-01-22 09:08:00,16.6,7.0,30.30,ENE,67,4.0,6.0,64,0.00,,,0.00,94.38,Custom,2013-01-22 15:08:00,
2013-01-22 09:13:00,16.8,7.0,30.30,East,100,3.0,5.0,64,0.00,,,0.00,99.84,Custom,2013-01-22 15:13:00,
2013-01-22 09:18:00,16.8,6.0,30.30,East,95,4.0,6.0,63,0.00,,,0.00,104.13,Custom,2013-01-22 15:18:00,
2013-01-22 09:23:00,17.0,6.0,30.31,ENE,78,3.0,5.0,63,0.00,,,0.00,120.51,Custom,2013-01-22 15:23:00,
2013-01-22 09:28:00,17.2,7.0,30.31,ESE,108,4.0,7.0,63,0.00,,,0.00,115.83,Custom,2013-01-22 15:28:00,
2013-01-22 09:33:00,17.6,7.0,30.31,East,93,3.0,6.0,63,0.00,,,0.00,122.07,Custom,2013-01-22 15:33:00,
2013-01-22 09:38:00,17.8,7.0,30.31,East,101,0.0,5.0,62,0.00,,,0.00,138.06,Custom,2013-01-22 15:38:00,
2013-01-22 09:43:00,18.3,7.0,30.31,East,94,3.0,5.0,61,0.00,,,0.00,165.75,Custom,2013-01-22 15:43:00,
2013-01-22 09:48:00,18.3,6.0,30.30,East,93,0.0,5.0,59,0.00,,,0.00,177.06,Custom,2013-01-22 15:48:00,
2013-01-22 09:53:00,18.6,6.0,30.30,East,91,1.0,5.0,58,0.00,,,0.00,275.34,Custom,2013-01-22 15:53:00,
2013-01-22 09:58:00,20.4,7.0,30.29,East,89,0.0,5.0,57,0.00,,,0.00,282.75,Custom,2013-01-22 15:58:00,
2013-01-22 10:03:00,20.3,7.0,30.29,SE,126,2.0,7.0,55,0.00,,,0.00,239.07,Custom,2013-01-22 16:03:00,
2013-01-22 10:09:00,20.3,7.0,30.30,East,80,2.0,4.0,57,0.00,,,0.00,223.47,Custom,2013-01-22 16:09:00,
2013-01-22 10:14:00,19.7,7.0,30.30,ENE,66,5.0,7.0,56,0.00,,,0.00,228.93,Custom,2013-01-22 16:14:00,
2013-01-22 10:19:00,20.3,7.0,30.31,ENE,75,4.0,7.0,56,0.00,,,0.00,187.98,Custom,2013-01-22 16:19:00,
2013-01-22 10:24:00,20.1,7.0,30.31,East,79,7.0,7.0,57,0.00,,,0.00,329.94,Custom,2013-01-22 16:24:00,
2013-01-22 10:29:00,20.7,7.0,30.31,ENE,63,3.0,9.0,55,0.00,,,0.00,315.12,Custom,2013-01-22 16:29:00,
2013-01-22 10:34:00,21.3,7.0,30.32,East,88,0.0,5.0,54,0.00,,,0.00,316.68,Custom,2013-01-22 16:34:00,
2013-01-22 10:39:00,21.1,7.0,30.32,NE,54,6.0,6.0,54,0.00,,,0.00,271.44,Custom,2013-01-22 16:39:00,
2013-01-22 10:44:00,21.2,7.0,30.32,ESE,117,0.0,6.0,53,0.00,,,0.00,280.8,Custom,2013-01-22 16:44:00,
2013-01-22 10:49:00,21.9,7.0,30.31,NE,55,3.0,4.0,53,0.00,,,0.00,307.71,Custom,2013-01-22 16:49:00,
2013-01-22 10:54:00,22.1,7.0,30.31,East,87,0.0,7.0,51,0.00,,,0.00,241.8,Custom,2013-01-22 16:54:00,
2013-01-22 10:59:00,22.3,7.0,30.30,East,95,6.0,7.0,51,0.00,,,0.00,351.39,Custom,2013-01-22 16:59:00,
2013-01-22 11:04:00,22.4,6.0,30.30,ENE,57,3.0,7.0,49,0.00,,,0.00,407.16,Custom,2013-01-22 17:04:00,
2013-01-22 11:09:00,23.4,7.0,30.30,ENE,64,5.0,7.0,49,0.00,,,0.00,414.96,Custom,2013-01-22 17:09:00,
2013-01-22 11:14:00,23.5,6.0,30.29,East,93,1.0,5.0,48,0.00,,,0.00,418.47,Custom,2013-01-22 17:14:00,
2013-01-22 11:19:00,23.9,6.0,30.29,ENE,76,3.0,6.0,46,0.00,,,0.00,409.89,Custom,2013-01-22 17:19:00,
2013-01-22 11:24:00,23.9,7.0,30.29,NE,37,3.0,7.0,47,0.00,,,0.00,416.52,Custom,2013-01-22 17:24:00,
2013-01-22 11:29:00,24.0,8.0,30.29,East,96,0.0,5.0,50,0.00,,,0.00,414.18,Custom,2013-01-22 17:29:00,
2013-01-22 11:34:00,24.2,7.0,30.29,ENE,65,3.0,6.0,47,0.00,,,0.00,443.82,Custom,2013-01-22 17:34:00,
2013-01-22 11:39:00,25.4,8.0,30.28,East,80,2.0,7.0,47,0.00,,,0.00,445.77,Custom,2013-01-22 17:39:00,
2013-01-22 11:44:00,25.7,7.0,30.28,East,91,2.0,5.0,45,0.00,,,0.00,433.29,Custom,2013-01-22 17:44:00,
2013-01-22 11:49:00,26.1,8.0,30.28,SSE,161,2.0,5.0,46,0.00,,,0.00,437.58,Custom,2013-01-22 17:49:00,
2013-01-22 11:54:00,25.5,7.0,30.27,ESE,116,4.0,7.0,45,0.00,,,0.00,447.33,Custom,2013-01-22 17:54:00,
2013-01-22 11:59:00,25.3,7.0,30.27,ESE,110,2.0,7.0,45,0.00,,,0.00,474.24,Custom,2013-01-22 17:59:00,
2013-01-22 12:04:00,25.8,6.0,30.27,NE,39,2.0,7.0,43,0.00,,,0.00,476.97,Custom,2013-01-22 18:04:00,
2013-01-22 12:09:00,27.3,9.0,30.26,ENE,71,7.0,7.0,45,0.00,,,0.00,448.5,Custom,2013-01-22 18:09:00,
2013-01-22 12:14:00,26.4,8.0,30.25,East,93,4.0,8.0,45,0.00,,,0.00,482.43,Custom,2013-01-22 18:14:00,
2013-01-22 12:19:00,25.9,8.0,30.26,East,79,0.0,7.0,46,0.00,,,0.00,463.32,Custom,2013-01-22 18:19:00,
2013-01-22 12:24:00,26.9,8.0,30.24,South,172,3.0,5.0,44,0.00,,,0.00,463.71,Custom,2013-01-22 18:24:00,
2013-01-22 12:29:00,27.6,8.0,30.24,ENE,70,4.0,7.0,43,0.00,,,0.00,465.66,Custom,2013-01-22 18:29:00,
2013-01-22 12:34:00,27.7,8.0,30.24,ESE,102,1.0,5.0,43,0.00,,,0.00,453.18,Custom,2013-01-22 18:34:00,
2013-01-22 12:39:00,28.2,8.0,30.24,ESE,120,0.0,7.0,43,0.00,,,0.00,468.39,Custom,2013-01-22 18:39:00,
2013-01-22 12:44:00,28.7,9.0,30.24,East,99,0.0,7.0,43,0.00,,,0.00,467.22,Custom,2013-01-22 18:44:00,
2013-01-22 12:49:00,28.5,8.0,30.23,East,101,2.0,4.0,41,0.00,,,0.00,454.35,Custom,2013-01-22 18:49:00,
2013-01-22 12:54:00,28.8,8.0,30.22,ESE,106,0.0,6.0,41,0.00,,,0.00,459.81,Custom,2013-01-22 18:54:00,
2013-01-22 12:59:00,29.3,8.0,30.22,SSE,152,1.0,5.0,41,0.00,,,0.00,446.55,Custom,2013-01-22 18:59:00,
2013-01-22 13:04:00,29.4,8.0,30.21,East,95,2.0,3.0,41,0.00,,,0.00,460.98,Custom,2013-01-22 19:04:00,
2013-01-22 13:09:00,28.1,8.0,30.21,East,81,2.0,5.0,41,0.00,,,0.00,458.64,Custom,2013-01-22 19:09:00,
2013-01-22 13:14:00,29.0,9.0,30.20,NE,55,4.0,4.0,43,0.00,,,0.00,466.05,Custom,2013-01-22 19:14:00,
2013-01-22 13:19:00,30.3,9.0,30.20,ESE,121,0.0,5.0,42,0.00,,,0.00,461.37,Custom,2013-01-22 19:19:00,
2013-01-22 13:24:00,29.0,9.0,30.20,ENE,74,0.0,5.0,42,0.00,,,0.00,455.91,Custom,2013-01-22 19:24:00,
2013-01-22 13:29:00,29.4,10.0,30.20,East,88,0.0,7.0,43,0.00,,,0.00,452.79,Custom,2013-01-22 19:29:00,
2013-01-22 13:34:00,31.4,11.0,30.19,ESE,102,0.0,4.0,41,0.00,,,0.00,432.9,Custom,2013-01-22 19:34:00,
2013-01-22 13:39:00,31.0,10.0,30.19,South,180,2.0,7.0,40,0.00,,,0.00,437.58,Custom,2013-01-22 19:39:00,
2013-01-22 13:44:00,30.6,10.0,30.19,ESE,110,0.0,7.0,41,0.00,,,0.00,434.07,Custom,2013-01-22 19:44:00,
2013-01-22 13:49:00,32.1,10.0,30.19,South,188,8.0,8.0,41,0.00,,,0.00,427.83,Custom,2013-01-22 19:49:00,
2013-01-22 13:54:00,31.1,10.0,30.19,ESE,102,3.0,7.0,40,0.00,,,0.00,418.08,Custom,2013-01-22 19:54:00,
2013-01-22 13:59:00,30.5,10.0,30.19,ESE,106,2.0,7.0,41,0.00,,,0.00,398.97,Custom,2013-01-22 19:59:00,
2013-01-22 14:04:00,30.6,10.0,30.19,East,95,0.0,7.0,42,0.00,,,0.00,373.62,Custom,2013-01-22 20:04:00,
2013-01-22 14:09:00,31.5,10.0,30.19,ESE,113,4.0,4.0,40,0.00,,,0.00,388.44,Custom,2013-01-22 20:09:00,
2013-01-22 14:14:00,32.2,10.0,30.18,East,95,2.0,4.0,39,0.00,,,0.00,388.44,Custom,2013-01-22 20:14:00,
2013-01-22 14:19:00,31.1,10.0,30.18,East,87,3.0,6.0,40,0.00,,,0.00,368.94,Custom,2013-01-22 20:19:00,
2013-01-22 14:24:00,32.3,11.0,30.18,SE,135,7.0,7.0,41,0.00,,,0.00,359.58,Custom,2013-01-22 20:24:00,
2013-01-22 14:29:00,32.2,10.0,30.18,ESE,105,7.0,7.0,39,0.00,,,0.00,358.02,Custom,2013-01-22 20:29:00,
2013-01-22 14:34:00,32.9,10.0,30.18,SE,135,0.0,7.0,38,0.00,,,0.00,350.22,Custom,2013-01-22 20:34:00,
2013-01-22 14:39:00,32.5,11.0,30.18,ENE,73,0.0,4.0,40,0.00,,,0.00,326.04,Custom,2013-01-22 20:39:00,
2013-01-22 14:44:00,31.7,11.0,30.18,ENE,78,3.0,6.0,41,0.00,,,0.00,322.14,Custom,2013-01-22 20:44:00,
2013-01-22 14:49:00,31.7,11.0,30.18,ESE,106,0.0,6.0,41,0.00,,,0.00,312,Custom,2013-01-22 20:49:00,
2013-01-22 14:54:00,32.0,11.0,30.17,East,79,0.0,5.0,42,0.00,,,0.00,280.8,Custom,2013-01-22 20:54:00,
2013-01-22 14:59:00,31.7,11.0,30.17,ENE,78,2.0,5.0,42,0.00,,,0.00,187.98,Custom,2013-01-22 20:59:00,
2013-01-22 15:04:00,31.5,11.0,30.17,ENE,74,4.0,6.0,42,0.00,,,0.00,243.75,Custom,2013-01-22 21:04:00,
2013-01-22 15:09:00,31.3,11.0,30.16,ENE,72,2.0,6.0,42,0.00,,,0.00,182.91,Custom,2013-01-22 21:09:00,
2013-01-22 15:14:00,31.0,11.0,30.16,East,101,9.0,9.0,42,0.00,,,0.00,181.74,Custom,2013-01-22 21:14:00,
2013-01-22 15:19:00,32.3,12.0,30.15,ENE,73,0.0,8.0,43,0.00,,,0.00,206.7,Custom,2013-01-22 21:19:00,
2013-01-22 15:24:00,31.6,12.0,30.15,ESE,106,3.0,7.0,42,0.00,,,0.00,159.9,Custom,2013-01-22 21:24:00,
2013-01-22 15:29:00,31.8,11.0,30.15,East,83,0.0,7.0,42,0.00,,,0.00,178.23,Custom,2013-01-22 21:29:00,
2013-01-22 15:31:00,32.7,12.0,30.15,ESE,117,2.0,5.0,41,0.00,,,0.00,156.78,Custom,2013-01-22 21:31:00,
2013-01-22 15:36:00,32.0,11.0,30.15,ESE,117,1.0,7.0,42,0.00,,,0.00,152.88,Custom,2013-01-22 21:36:00,
2013-01-22 15:41:00,31.7,11.0,30.15,ESE,102,5.0,5.0,41,0.00,,,0.00,180.96,Custom,2013-01-22 21:41:00,
2013-01-22 15:47:00,31.7,11.0,30.15,ESE,120,0.0,6.0,41,0.00,,,0.00,131.82,Custom,2013-01-22 21:47:00,
2013-01-22 15:52:00,31.4,11.0,30.15,ENE,58,4.0,6.0,42,0.00,,,0.00,123.63,Custom,2013-01-22 21:52:00,
2013-01-22 15:57:00,31.5,11.0,30.15,ESE,111,4.0,4.0,43,0.00,,,0.00,125.58,Custom,2013-01-22 21:57:00,
2013-01-22 16:02:00,31.8,11.0,30.15,East,87,3.0,4.0,41,0.00,,,0.00,117,Custom,2013-01-22 22:02:00,
2013-01-22 16:07:00,31.6,11.0,30.15,East,94,4.0,4.0,42,0.00,,,0.00,102.18,Custom,2013-01-22 22:07:00,
2013-01-22 16:13:00,31.1,11.0,30.14,ESE,112,2.0,7.0,42,0.00,,,0.00,92.82,Custom,2013-01-22 22:13:00,
2013-01-22 16:18:00,30.8,11.0,30.15,East,97,3.0,6.0,43,0.00,,,0.00,71.76,Custom,2013-01-22 22:18:00,
2013-01-22 16:23:00,29.9,11.0,30.15,East,88,3.0,7.0,44,0.00,,,0.00,48.75,Custom,2013-01-22 22:23:00,
2013-01-22 16:28:00,29.7,11.0,30.16,ESE,110,0.0,5.0,46,0.00,,,0.00,44.46,Custom,2013-01-22 22:28:00,
2013-01-22 16:33:00,29.2,11.0,30.16,ENE,70,0.0,5.0,46,0.00,,,0.00,38.61,Custom,2013-01-22 22:33:00,
2013-01-22 16:38:00,28.9,11.0,30.16,ENE,70,0.0,4.0,47,0.00,,,0.00,37.05,Custom,2013-01-22 22:38:00,
2013-01-22 16:43:00,28.8,11.0,30.17,East,91,0.0,3.0,48,0.00,,,0.00,34.32,Custom,2013-01-22 22:43:00,
2013-01-22 16:48:00,28.6,11.0,30.18,East,97,2.0,4.0,47,0.00,,,0.00,29.64,Custom,2013-01-22 22:48:00,
2013-01-22 16:53:00,28.6,11.0,30.18,ESE,106,0.0,5.0,48,0.00,,,0.00,28.08,Custom,2013-01-22 22:53:00,
2013-01-22 16:58:00,28.3,11.0,30.18,East,101,2.0,5.0,48,0.00,,,0.00,23.79,Custom,2013-01-22 22:58:00,
2013-01-22 17:03:00,28.0,11.0,30.18,East,100,2.0,3.0,49,0.00,,,0.00,21.45,Custom,2013-01-22 23:03:00,
2013-01-22 17:08:00,27.7,11.0,30.18,East,85,0.0,4.0,50,0.00,,,0.00,17.94,Custom,2013-01-22 23:08:00,
2013-01-22 17:13:00,27.5,11.0,30.18,East,84,1.0,2.0,49,0.00,,,0.00,14.82,Custom,2013-01-22 23:13:00,
2013-01-22 17:18:00,27.4,11.0,30.18,East,84,0.0,3.0,50,0.00,,,0.00,10.53,Custom,2013-01-22 23:18:00,
2013-01-22 17:23:00,26.9,11.0,30.18,East,84,0.0,1.0,51,0.00,,,0.00,0,Custom,2013-01-22 23:23:00,
2013-01-22 17:28:00,26.5,11.0,30.18,East,84,0.0,0.0,51,0.00,,,0.00,0,Custom,2013-01-22 23:28:00,
2013-01-22 17:33:00,26.3,11.0,30.18,East,84,2.0,0.0,52,0.00,,,0.00,0,Custom,2013-01-22 23:33:00,
2013-01-22 17:38:00,26.3,11.0,30.18,East,84,0.0,2.0,51,0.00,,,0.00,0,Custom,2013-01-22 23:38:00,
2013-01-22 17:43:00,26.2,11.0,30.18,East,84,0.0,3.0,52,0.00,,,0.00,0,Custom,2013-01-22 23:43:00,
2013-01-22 17:48:00,25.8,11.0,30.19,East,84,0.0,0.0,53,0.00,,,0.00,0,Custom,2013-01-22 23:48:00,
2013-01-22 17:53:00,25.4,11.0,30.18,East,84,0.0,0.0,53,0.00,,,0.00,0,Custom,2013-01-22 23:53:00,
2013-01-22 17:58:00,25.0,10.0,30.18,East,84,0.0,0.0,53,0.00,,,0.00,0,Custom,2013-01-22 23:58:00,
2013-01-22 18:03:00,24.9,11.0,30.18,East,84,0.0,0.0,54,0.00,,,0.00,0,Custom,2013-01-23 00:03:00,
2013-01-22 18:08:00,24.7,11.0,30.19,East,84,0.0,0.0,55,0.00,,,0.00,0,Custom,2013-01-23 00:08:00,
2013-01-22 18:13:00,24.9,11.0,30.19,East,84,0.0,0.0,56,0.00,,,0.00,0,Custom,2013-01-23 00:13:00,
2013-01-22 18:18:00,24.8,11.0,30.19,East,84,0.0,0.0,55,0.00,,,0.00,0,Custom,2013-01-23 00:18:00,
2013-01-22 18:23:00,24.7,11.0,30.19,East,84,0.0,0.0,55,0.00,,,0.00,0,Custom,2013-01-23 00:23:00,
2013-01-22 18:28:00,24.6,11.0,30.19,East,84,0.0,0.0,56,0.00,,,0.00,0,Custom,2013-01-23 00:28:00,
2013-01-22 18:33:00,24.5,11.0,30.19,East,84,0.0,0.0,56,0.00,,,0.00,0,Custom,2013-01-23 00:33:00,
2013-01-22 18:38:00,24.1,11.0,30.19,East,84,0.0,0.0,57,0.00,,,0.00,0,Custom,2013-01-23 00:38:00,
2013-01-22 18:43:00,24.0,11.0,30.19,East,84,0.0,0.0,57,0.00,,,0.00,0,Custom,2013-01-23 00:43:00,
2013-01-22 18:48:00,24.0,11.0,30.19,East,84,0.0,0.0,57,0.00,,,0.00,0,Custom,2013-01-23 00:48:00,
2013-01-22 18:53:00,24.0,11.0,30.19,East,84,0.0,0.0,57,0.00,,,0.00,0,Custom,2013-01-23 00:53:00,
2013-01-22 18:58:00,24.1,11.0,30.19,East,84,0.0,0.0,56,0.00,,,0.00,0,Custom,2013-01-23 00:58:00,
2013-01-22 19:03:00,23.9,11.0,30.20,East,84,0.0,0.0,57,0.00,,,0.00,0,Custom,2013-01-23 01:03:00,
2013-01-22 19:08:00,23.9,11.0,30.20,East,84,0.0,0.0,57,0.00,,,0.00,0,Custom,2013-01-23 01:08:00,
2013-01-22 19:13:00,23.5,11.0,30.21,East,84,0.0,0.0,58,0.00,,,0.00,0,Custom,2013-01-23 01:13:00,
2013-01-22 19:18:00,23.4,11.0,30.20,East,84,0.0,1.0,58,0.00,,,0.00,0,Custom,2013-01-23 01:18:00,
2013-01-22 19:23:00,23.4,11.0,30.20,East,83,2.0,0.0,58,0.00,,,0.00,0,Custom,2013-01-23 01:23:00,
2013-01-22 19:28:00,23.5,11.0,30.19,East,83,0.0,3.0,57,0.00,,,0.00,0,Custom,2013-01-23 01:28:00,
2013-01-22 19:33:00,23.5,11.0,30.19,East,83,0.0,2.0,57,0.00,,,0.00,0,Custom,2013-01-23 01:33:00,
2013-01-22 19:38:00,23.4,10.0,30.19,East,83,0.0,1.0,57,0.00,,,0.00,0,Custom,2013-01-23 01:38:00,
2013-01-22 19:43:00,23.1,10.0,30.19,East,83,1.0,3.0,58,0.00,,,0.00,0,Custom,2013-01-23 01:43:00,
2013-01-22 19:48:00,23.2,10.0,30.20,East,83,0.0,1.0,57,0.00,,,0.00,0,Custom,2013-01-23 01:48:00,
2013-01-22 19:53:00,23.0,10.0,30.21,East,83,3.0,0.0,58,0.00,,,0.00,0,Custom,2013-01-23 01:53:00,
2013-01-22 19:58:00,22.7,10.0,30.20,East,83,0.0,3.0,58,0.00,,,0.00,0,Custom,2013-01-23 01:58:00,
2013-01-22 20:03:00,22.9,10.0,30.20,East,84,0.0,2.0,58,0.00,,,0.00,0,Custom,2013-01-23 02:03:00,
2013-01-22 20:08:00,22.9,10.0,30.21,East,84,0.0,0.0,58,0.00,,,0.00,0,Custom,2013-01-23 02:08:00,
2013-01-22 20:13:00,22.7,10.0,30.20,East,84,0.0,2.0,58,0.00,,,0.00,0,Custom,2013-01-23 02:13:00,
2013-01-22 20:18:00,22.5,10.0,30.20,East,84,0.0,0.0,58,0.00,,,0.00,0,Custom,2013-01-23 02:18:00,
2013-01-22 20:23:00,22.4,10.0,30.19,East,82,0.0,2.0,58,0.00,,,0.00,0,Custom,2013-01-23 02:23:00,
2013-01-22 20:29:00,22.2,10.0,30.20,East,82,0.0,1.0,59,0.00,,,0.00,0,Custom,2013-01-23 02:29:00,
2013-01-22 20:34:00,21.9,10.0,30.20,East,83,0.0,0.0,59,0.00,,,0.00,0,Custom,2013-01-23 02:34:00,
2013-01-22 20:39:00,21.8,10.0,30.20,East,82,0.0,2.0,60,0.00,,,0.00,0,Custom,2013-01-23 02:39:00,
2013-01-22 20:44:00,21.8,10.0,30.19,ENE,78,0.0,4.0,60,0.00,,,0.00,0,Custom,2013-01-23 02:44:00,
2013-01-22 20:49:00,22.2,10.0,30.19,ENE,78,2.0,3.0,59,0.00,,,0.00,0,Custom,2013-01-23 02:49:00,
2013-01-22 20:54:00,21.8,10.0,30.19,ENE,78,0.0,2.0,60,0.00,,,0.00,0,Custom,2013-01-23 02:54:00,
2013-01-22 20:59:00,21.8,10.0,30.19,ENE,77,0.0,2.0,60,0.00,,,0.00,0,Custom,2013-01-23 02:59:00,
2013-01-22 21:04:00,21.9,10.0,30.20,ENE,71,0.0,3.0,60,0.00,,,0.00,0,Custom,2013-01-23 03:04:00,
2013-01-22 21:09:00,21.9,10.0,30.19,ENE,71,0.0,3.0,60,0.00,,,0.00,0,Custom,2013-01-23 03:09:00,
2013-01-22 21:14:00,21.8,10.0,30.20,ENE,71,2.0,2.0,60,0.00,,,0.00,0,Custom,2013-01-23 03:14:00,
2013-01-22 21:19:00,21.6,10.0,30.20,ENE,71,2.0,2.0,61,0.00,,,0.00,0,Custom,2013-01-23 03:19:00,
2013-01-22 21:24:00,21.5,10.0,30.20,ENE,71,0.0,2.0,61,0.00,,,0.00,0,Custom,2013-01-23 03:24:00,
2013-01-22 21:29:00,21.5,10.0,30.20,ENE,71,2.0,2.0,61,0.00,,,0.00,0,Custom,2013-01-23 03:29:00,
2013-01-22 21:34:00,21.5,10.0,30.21,ENE,71,0.0,2.0,61,0.00,,,0.00,0,Custom,2013-01-23 03:34:00,
2013-01-22 21:39:00,21.3,10.0,30.21,ENE,70,0.0,3.0,62,0.00,,,0.00,0,Custom,2013-01-23 03:39:00,
2013-01-22 21:44:00,21.2,10.0,30.21,ENE,70,0.0,2.0,62,0.00,,,0.00,0,Custom,2013-01-23 03:44:00,
2013-01-22 21:49:00,20.9,10.0,30.21,ENE,70,0.0,3.0,63,0.00,,,0.00,0,Custom,2013-01-23 03:49:00,
2013-01-22 21:54:00,21.0,10.0,30.21,ENE,70,0.0,3.0,63,0.00,,,0.00,0,Custom,2013-01-23 03:54:00,
2013-01-22 21:59:00,20.8,10.0,30.21,ENE,70,1.0,2.0,63,0.00,,,0.00,0,Custom,2013-01-23 03:59:00,
2013-01-22 22:04:00,20.6,10.0,30.21,ENE,70,0.0,3.0,63,0.00,,,0.00,0,Custom,2013-01-23 04:04:00,
2013-01-22 22:09:00,20.5,10.0,30.20,ENE,70,0.0,0.0,63,0.00,,,0.00,0,Custom,2013-01-23 04:09:00,
2013-01-22 22:14:00,20.0,10.0,30.20,ENE,70,0.0,2.0,64,0.00,,,0.00,0,Custom,2013-01-23 04:14:00,
2013-01-22 22:19:00,19.9,10.0,30.21,ENE,70,0.0,0.0,65,0.00,,,0.00,0,Custom,2013-01-23 04:19:00,
2013-01-22 22:24:00,19.7,10.0,30.21,ENE,70,0.0,0.0,65,0.00,,,0.00,0,Custom,2013-01-23 04:24:00,
2013-01-22 22:29:00,19.7,10.0,30.21,ENE,70,0.0,0.0,65,0.00,,,0.00,0,Custom,2013-01-23 04:29:00,
2013-01-22 22:34:00,19.5,10.0,30.21,ENE,70,0.0,0.0,66,0.00,,,0.00,0,Custom,2013-01-23 04:34:00,
2013-01-22 22:39:00,19.3,10.0,30.21,ENE,70,0.0,0.0,66,0.00,,,0.00,0,Custom,2013-01-23 04:39:00,
2013-01-22 22:44:00,19.0,10.0,30.21,ENE,70,0.0,0.0,66,0.00,,,0.00,0,Custom,2013-01-23 04:44:00,
2013-01-22 22:49:00,18.8,10.0,30.21,ENE,70,0.0,0.0,67,0.00,,,0.00,0,Custom,2013-01-23 04:49:00,
2013-01-22 22:54:00,18.8,10.0,30.21,ENE,70,0.0,0.0,67,0.00,,,0.00,0,Custom,2013-01-23 04:54:00,
2013-01-22 22:59:00,18.9,10.0,30.21,ENE,70,0.0,0.0,68,0.00,,,0.00,0,Custom,2013-01-23 04:59:00,
2013-01-22 23:01:00,18.9,10.0,30.21,ENE,70,0.0,0.0,67,0.00,,,0.00,0,Custom,2013-01-23 05:01:00,
2013-01-22 23:03:00,18.9,10.0,30.21,ENE,70,0.0,0.0,67,0.00,,,0.00,0,Custom,2013-01-23 05:03:00,
2013-01-22 23:04:00,18.9,10.0,30.21,ENE,70,0.0,0.0,68,0.00,,,0.00,0,Custom,2013-01-23 05:04:00,
2013-01-22 23:06:00,18.9,10.0,30.21,ENE,70,0.0,0.0,68,0.00,,,0.00,0,Custom,2013-01-23 05:06:00,
2013-01-22 23:11:00,18.5,10.0,30.21,ENE,70,0.0,0.0,68,0.00,,,0.00,0,Custom,2013-01-23 05:11:00,
2013-01-22 23:16:00,18.0,10.0,30.21,ENE,70,0.0,0.0,68,0.00,,,0.00,0,Custom,2013-01-23 05:16:00,
2013-01-22 23:21:00,17.6,9.0,30.21,ENE,70,0.0,0.0,68,0.00,,,0.00,0,Custom,2013-01-23 05:21:00,
2013-01-22 23:26:00,17.5,9.0,30.21,ENE,70,0.0,0.0,70,0.00,,,0.00,0,Custom,2013-01-23 05:26:00,
2013-01-22 23:31:00,17.4,9.0,30.21,ENE,70,0.0,0.0,70,0.00,,,0.00,0,Custom,2013-01-23 05:31:00,
2013-01-22 23:36:00,17.1,9.0,30.21,ENE,70,0.0,0.0,70,0.00,,,0.00,0,Custom,2013-01-23 05:36:00,
2013-01-22 23:41:00,17.0,9.0,30.20,ENE,70,0.0,0.0,71,0.00,,,0.00,0,Custom,2013-01-23 05:41:00,
2013-01-22 23:46:00,16.6,9.0,30.19,ENE,70,0.0,0.0,71,0.00,,,0.00,0,Custom,2013-01-23 05:46:00,
2013-01-22 23:51:00,16.6,9.0,30.20,ENE,70,0.0,0.0,72,0.00,,,0.00,0,Custom,2013-01-23 05:51:00,
2013-01-22 23:56:00,16.6,9.0,30.19,ENE,70,0.0,0.0,72,0.00,,,0.00,0,Custom,2013-01-23 05:56:00,